User: anonymous   Login
Location: Wien
(48.2082°N, 16.3738°E)
Time: 22:36:00
(UTC+01:00)
Language:

QB50P2 - Orbit

View from above orbital plane
View from above orbital plane
View from above satellite
View from above satellite

Ground track
Ground track

The orbit data is extracted from the following two-line orbital elements,

1 40032U 14033Y   19318.46538763  .00000291  00000-0  37307-4 0  9990
2 40032  97.8977 235.8007 0010535 289.5743  70.4336 14.88550049293376
Epoch (UTC): 14 November 2019 11:10:09
Eccentricity: 0.0010535
inclination: 97.8977°
perigee height: 595 km
apogee height: 610 km
right ascension of ascending node: 235.8007°
argument of perigee: 289.5743°
revolutions per day: 14.88550049
mean anomaly at epoch: 70.4336°
orbit number at epoch: 29337

The dashed part of the orbit path shows where the satellite is in the earth's shadow,  

DLR